Regional Weather Roundup
Issued by NWS

Home | Current Version | Previous Version | Graphics & Text | Print | Product List | Glossary On
Versions: 1 2 3 4 5 6 7 8 9 10 11 12 13 14 15 16 17 18 19 20 21 22 23 24 25 26 27
000
ASUS45 KSLC 190210
RWRUT

UTAH REGIONAL WEATHER ROUNDUP
NATIONAL WEATHER SERVICE SALT LAKE CITY UT
700 PM MST SAT NOV 18 2017

UTZ001>011-023>025-190300-

NORTHERN UTAH

CITY           SKY/WX    TMP DP  RH WIND       PRES   REMARKS
BRIGHAM CITY   PTCLDY    32  24  70 CALM      30.39S
HILL AFB       PTCLDY    31  21  67 SE6       30.36S WCI  25
LOGAN          PTCLDY    33  23  66 SE5       30.37F WCI  29
OGDEN          PTCLDY    33  23  66 NE7       30.37S WCI  27
SALT LAKE CITY PTCLDY    37  26  64 N3        30.37S
TOOELE VALLEY  PTCLDY    32  27  80 S6        30.38S WCI  26
WENDOVER       CLEAR     32  22  66 NE6       30.36F WCI  26
HEBER CITY       N/A     27  21  80 CALM      30.35S
WEST JORDAN    PTCLDY    32  26  80 CALM      30.37S

$$

UTZ011>015-024>027-190300-

CENTRAL/NORTHEAST UTAH

CITY           SKY/WX    TMP DP  RH WIND       PRES   REMARKS
PROVO AIRPORT  PTCLDY    32  23  69 CALM      30.38F
MOAB/CANYONLAN CLEAR     32  -1  24 CALM      30.36S
DELTA          PTCLDY    32  14  47 CALM      30.35S
PRICE          CLEAR     27   5  39 N10       30.36S WCI  17
RICHFIELD      CLEAR     28  23  80 CALM      30.38S
ROOSEVELT      CLOUDY    28  10  47 CALM      30.39R
VERNAL         CLOUDY    28  10  46 W5        30.37S WCI  23

$$

UTZ013>016-019>022-027-190300-

SOUTHERN UTAH

CITY           SKY/WX    TMP DP  RH WIND       PRES   REMARKS
BRYCE CANYON   CLEAR     16   9  74 W5        30.35S WCI   9
CEDAR CITY     CLEAR     30  20  66 SE5       30.31R WCI  25
MILFORD        CLEAR     25  17  72 NE6       30.34R WCI  18
ST GEORGE      PTCLDY    48   9  20 CALM      30.27R
HANKSVILLE     CLEAR     32   5  32 NE7       30.39S WCI  26
KANAB          CLEAR     41   7  24 N8G15     30.34R
BLANDING         N/A     29  10  43 NE5       30.42S WCI  24

$$

REGIONAL REPORTS     COLORADO/ARIZONA

CITY           SKY/WX    TMP DP  RH WIND       PRES   REMARKS
CRAIG, CO      CLOUDY    17  11  77 CALM      30.38S
GRAND JUNCTION CLEAR     31  15  52 NE3       30.38S
RIFLE, CO      CLOUDY    29  23  78 SE3       30.41R
MONTROSE, CO   CLOUDY    30  20  66 MISG      30.40S
CORTEZ, CO     CLOUDY    27  12  53 NE7       30.35R WCI  19
COLORADO CITY    N/A     45  10  24 NE12      30.30S
PAGE, AZ       PTCLDY    41  12  30 CALM      30.32F
GRAND CANYON   PTCLDY    34   1  24 NE6       30.30S WCI  29
KINGMAN, AZ    CLEAR     44  12  27 E8        30.22R
FLAGSTAFF, AZ  MOCLDY    29   1  30 NE3       30.32R

$$

REGIONAL REPORTS    NEVADA/IDAHO/WYOMING

CITY           SKY/WX    TMP DP  RH WIND       PRES   REMARKS
LAS VEGAS, NV  PTCLDY    57  11  16 CALM      30.23S
ELY, NY        CLEAR     21  13  71 S9        30.31R WCI  11
ELKO, NV       CLEAR     30  21  69 E5        30.29S WCI  25
POCATELLO, ID  PTCLDY    34  19  54 CALM      30.34F
BURLEY, ID     PTCLDY    32  23  69 NE3       30.30F
EVANSTON, WY   CLOUDY    22  16  78 CALM      30.33S
ROCK SPRINGS,  CLOUDY    19  12  74 SW10      30.33F WCI   7

$$




USA.gov is the U.S. government's official web portal to all federal, state and local government web resources and services.